| time (UTC) | temp F | wind direction | speed MPH | gust MPH | rain 1hr in | rain 24hr in | rain mn in | humidity % | barometer mb |
| 20260507010016 | 58 | 22 | 8.0 | 12.0 | 0.00 | 0.23 | 0.23 | 96 | 1013.6 |
| 20260507005017 | 58 | 45 | 7.0 | 12.0 | 0.00 | 0.23 | 0.23 | 96 | 1013.6 |
| 20260507004017 | 58 | 22 | 7.0 | 11.0 | 0.00 | 0.23 | 0.23 | 96 | 1013.4 |
| 20260507003017 | 58 | 45 | 8.0 | 12.0 | 0.00 | 0.23 | 0.23 | 95 | 1013.3 |
| 20260507002022 | 59 | 45 | 7.0 | 12.0 | 0.00 | 0.23 | 0.23 | 96 | 1013.1 |
| 20260507001117 | 59 | 45 | 6.0 | 9.0 | 0.00 | 0.23 | 0.23 | 96 | 1013.2 |
| 20260507000017 | 59 | 45 | 7.0 | 10.0 | 0.00 | 0.23 | 0.23 | 95 | 1013.0 |
| 20260506235017 | 59 | 22 | 7.0 | 12.0 | 0.00 | 0.23 | 0.23 | 95 | 1013.0 |
| 20260506234017 | 59 | 45 | 10.0 | 14.0 | 0.00 | 0.23 | 0.23 | 95 | 1012.9 |
| 20260506233017 | 0 | 45 | 10.0 | 13.0 | 0.00 | 0.23 | 0.23 | ||
| 20260506232017 | 59 | 45 | 9.0 | 13.0 | 0.00 | 0.23 | 0.23 | 95 | 1012.8 |
| 20260506231017 | 59 | 45 | 9.0 | 13.0 | 0.00 | 0.23 | 0.23 | 95 | 1012.7 |
| 20260506230119 | 59 | 45 | 9.0 | 14.0 | 0.00 | 0.23 | 0.23 | 95 | 1012.8 |
| 20260506224017 | 59 | 22 | 9.0 | 14.0 | 0.00 | 0.23 | 0.23 | 96 | 1012.7 |
| 20260506223017 | 59 | 22 | 11.0 | 15.0 | 0.00 | 0.23 | 0.23 | 95 | 1012.6 |
| 20260506221017 | 59 | 0 | 8.0 | 13.0 | 0.00 | 0.23 | 0.23 | 95 | 1012.6 |
| 20260506220018 | 60 | 22 | 7.0 | 11.0 | 0.00 | 0.23 | 0.23 | 95 | 1012.5 |
| 20260506215017 | 59 | 0 | 8.0 | 13.0 | 0.00 | 0.23 | 0.23 | 96 | 1012.6 |
| 20260506214017 | 0 | 22 | 9.0 | 14.0 | 0.00 | 0.23 | 0.23 | ||
| 20260506213016 | 59 | 0 | 10.0 | 13.0 | 0.00 | 0.23 | 0.23 | 96 | 1012.3 |
| 20260506212017 | 58 | 0 | 11.0 | 15.0 | 0.00 | 0.23 | 0.23 | 96 | 1012.2 |
| 20260506211017 | 58 | 0 | 11.0 | 14.0 | 0.00 | 0.23 | 0.23 | 96 | 1012.7 |
| 20260506210017 | 59 | 0 | 12.0 | 15.0 | 0.00 | 0.23 | 0.23 | 95 | 1012.4 |
| 20260506205017 | 60 | 22 | 10.0 | 14.0 | 0.00 | 0.23 | 0.23 | 96 | 1012.7 |
| 20260506204017 | 60 | 0 | 10.0 | 14.0 | 0.00 | 0.23 | 0.23 | 96 | 1012.9 |
| 20260506203017 | 60 | 22 | 9.0 | 13.0 | 0.00 | 0.23 | 0.23 | 97 | 1012.7 |
| 20260506202017 | 60 | 0 | 12.0 | 16.0 | 0.00 | 0.23 | 0.23 | 97 | 1012.7 |
| 20260506201017 | 60 | 0 | 10.0 | 14.0 | 0.00 | 0.23 | 0.23 | 98 | 1012.8 |
| 20260506200017 | 60 | 0 | 9.0 | 13.0 | 0.00 | 0.23 | 0.23 | 98 | 1012.9 |
| 20260506195017 | 59 | 0 | 10.0 | 13.0 | 0.00 | 0.23 | 0.23 | 99 | 1012.7 |
| 20260506194017 | 59 | 0 | 8.0 | 12.0 | 0.00 | 0.23 | 0.23 | 99 | 1012.8 |
| 20260506193017 | 59 | 0 | 11.0 | 14.0 | 0.00 | 0.23 | 0.23 | 99 | 1012.5 |
| 20260506192017 | 59 | 0 | 10.0 | 14.0 | 0.00 | 0.23 | 0.23 | 99 | 1012.7 |
| 20260506191017 | 59 | 0 | 9.0 | 14.0 | 0.03 | 0.23 | 0.23 | 99 | 1013.0 |
| 20260506190018 | 59 | 337 | 9.0 | 12.0 | 0.03 | 0.23 | 0.23 | 99 | 1012.9 |
| 20260506185017 | 58 | 337 | 11.0 | 14.0 | 0.03 | 0.23 | 0.23 | 99 | 1012.8 |
| 20260506184017 | 58 | 0 | 11.0 | 15.0 | 0.03 | 0.23 | 0.23 | 99 | 1013.1 |
| 20260506183017 | 58 | 337 | 12.0 | 17.0 | 0.03 | 0.23 | 0.23 | 98 | 1012.9 |
| 20260506182018 | 59 | 0 | 11.0 | 15.0 | 0.03 | 0.23 | 0.23 | 99 | 1012.8 |
| 20260506181017 | 59 | 337 | 9.0 | 14.0 | 0.00 | 0.20 | 0.20 | 98 | 1013.1 |
| 20260506180015 | 59 | 0 | 10.0 | 15.0 | 0.00 | 0.20 | 0.20 | 98 | 1012.6 |
| 20260506175015 | 60 | 337 | 12.0 | 18.0 | 0.10 | 0.20 | 0.20 | 98 | 1012.9 |
| 20260506174015 | 61 | 0 | 9.0 | 13.0 | 0.10 | 0.20 | 0.20 | 98 | 1012.8 |
| 20260506173015 | 61 | 337 | 10.0 | 13.0 | 0.10 | 0.20 | 0.20 | 97 | 1012.8 |
| 20260506172015 | 62 | 337 | 12.0 | 15.0 | 0.10 | 0.20 | 0.20 | 97 | 1013.2 |
| 20260506171015 | 63 | 0 | 11.0 | 16.0 | 0.10 | 0.20 | 0.20 | 97 | 1013.1 |
| 20260506170015 | 64 | 0 | 8.0 | 13.0 | 0.10 | 0.20 | 0.20 | 96 | 1013.0 |
| 20260506165015 | 65 | 0 | 9.0 | 13.0 | 0.00 | 0.10 | 0.10 | 96 | 1013.0 |
| 20260506164015 | 65 | 45 | 8.0 | 12.0 | 0.00 | 0.10 | 0.10 | 97 | 1012.7 |
| 20260506163015 | 65 | 45 | 6.0 | 10.0 | 0.00 | 0.10 | 0.10 | 97 | 1012.8 |
| 20260506162015 | 65 | 45 | 9.0 | 13.0 | 0.00 | 0.10 | 0.10 | 98 | 1012.6 |
| 20260506161015 | 65 | 67 | 9.0 | 13.0 | 0.00 | 0.10 | 0.10 | 98 | 1012.4 |
| 20260506160020 | 65 | 67 | 8.0 | 13.0 | 0.00 | 0.10 | 0.10 | 98 | 1012.2 |
| 20260506155015 | 64 | 67 | 10.0 | 15.0 | 0.00 | 0.10 | 0.10 | 98 | 1012.2 |
| 20260506154015 | 64 | 67 | 10.0 | 16.0 | 0.00 | 0.10 | 0.10 | 98 | 1012.0 |
| 20260506153015 | 65 | 67 | 10.0 | 15.0 | 0.04 | 0.10 | 0.10 | 99 | 1012.3 |
| 20260506152015 | 65 | 45 | 12.0 | 17.0 | 0.09 | 0.10 | 0.10 | 99 | 1012.1 |
| 20260506151015 | 65 | 45 | 13.0 | 17.0 | 0.10 | 0.10 | 0.10 | 100 | 1012.0 |
| 20260506150015 | 65 | 0 | 7.0 | 14.0 | 0.10 | 0.10 | 0.10 | 100 | 1012.1 |
| 20260506145015 | 64 | 0 | 11.0 | 21.0 | 0.10 | 0.10 | 0.10 | 100 | 1011.9 |
| 20260506144116 | 61 | 337 | 15.0 | 23.0 | 0.10 | 0.10 | 0.10 | 99 | 1011.8 |
| 20260506143015 | 62 | 315 | 21.0 | 30.0 | 0.06 | 0.06 | 0.06 | 97 | 1012.4 |
| 20260506142015 | 69 | 270 | 8.0 | 19.0 | 0.01 | 0.01 | 0.01 | 100 | 1012.9 |
| 20260506141015 | 70 | 180 | 4.0 | 7.0 | 0.00 | 0.00 | 0.00 | 100 | 1011.6 |
| 20260506140015 | 70 | 180 | 3.0 | 6.0 | 0.00 | 0.00 | 0.00 | 100 | 1011.9 |
| 20260506135015 | 70 | 135 | 1.0 | 6.0 | 0.00 | 0.00 | 0.00 | 100 | 1011.7 |
| 20260506134015 | 70 | 157 | 1.0 | 3.0 | 0.00 | 0.00 | 0.00 | 100 | 1011.9 |
| 20260506133015 | 70 | 0.0 | 2.0 | 0.00 | 0.00 | 0.00 | 100 | 1011.6 | |
| 20260506132015 | 70 | 157 | 3.0 | 9.0 | 0.00 | 0.00 | 0.00 | 100 | 1010.7 |
| 20260506131116 | 70 | 157 | 2.0 | 6.0 | 0.00 | 0.00 | 0.00 | 100 | 1010.1 |
| 20260506130015 | 70 | 135 | 3.0 | 5.0 | 0.00 | 0.00 | 0.00 | 100 | 1010.3 |
| 20260506125015 | 70 | 135 | 2.0 | 6.0 | 0.00 | 0.00 | 0.00 | 100 | 1010.5 |
| 20260506124015 | 70 | 157 | 1.0 | 4.0 | 0.00 | 0.00 | 0.00 | 100 | 1010.4 |
| 20260506122015 | 70 | 135 | 2.0 | 5.0 | 0.00 | 0.00 | 0.00 | 100 | 1010.2 |
| 20260506120015 | 70 | 0.0 | 2.0 | 0.00 | 0.00 | 0.00 | 100 | 1010.5 | |
| 20260506115015 | 70 | 157 | 1.0 | 5.0 | 0.00 | 0.00 | 0.00 | 100 | 1010.5 |
| 20260506114015 | 70 | 157 | 1.0 | 5.0 | 0.00 | 0.00 | 0.00 | 100 | 1010.5 |
| 20260506113016 | 70 | 180 | 3.0 | 6.0 | 0.00 | 0.00 | 0.00 | 100 | 1010.6 |
| 20260506112015 | 70 | 180 | 5.0 | 10.0 | 0.00 | 0.00 | 0.00 | 100 | 1010.4 |
| 20260506111015 | 70 | 180 | 5.0 | 11.0 | 0.00 | 0.00 | 0.00 | 100 | 1010.5 |
| 20260506110115 | 70 | 180 | 5.0 | 11.0 | 0.00 | 0.00 | 0.00 | 100 | 1010.5 |
| 20260506105015 | 70 | 180 | 7.0 | 13.0 | 0.00 | 0.00 | 0.00 | 100 | 1010.6 |
| 20260506104016 | 70 | 180 | 5.0 | 11.0 | 0.00 | 0.00 | 0.00 | 100 | 1010.6 |
| 20260506103015 | 70 | 180 | 6.0 | 12.0 | 0.00 | 0.00 | 0.00 | 100 | 1010.8 |
| 20260506102015 | 70 | 180 | 7.0 | 12.0 | 0.00 | 0.00 | 0.00 | 99 | 1010.5 |
| 20260506101015 | 70 | 180 | 8.0 | 14.0 | 0.00 | 0.00 | 0.00 | 99 | 1010.7 |
| 20260506100015 | 70 | 180 | 7.0 | 13.0 | 0.00 | 0.00 | 0.00 | 99 | 1010.5 |
| 20260506095116 | 70 | 180 | 9.0 | 16.0 | 0.00 | 0.00 | 0.00 | 99 | 1010.5 |
| 20260506094016 | 70 | 180 | 9.0 | 14.0 | 0.00 | 0.00 | 0.00 | 99 | 1010.4 |
| 20260506093116 | 70 | 180 | 6.0 | 10.0 | 0.00 | 0.00 | 0.00 | 99 | 1010.3 |
| 20260506092016 | 71 | 157 | 7.0 | 13.0 | 0.00 | 0.00 | 0.00 | 99 | 1010.4 |
| 20260506091015 | 71 | 180 | 7.0 | 15.0 | 0.00 | 0.00 | 0.00 | 98 | 1010.5 |
| 20260506090015 | 71 | 180 | 7.0 | 17.0 | 0.00 | 0.00 | 0.00 | 98 | 1010.5 |
| 20260506085016 | 71 | 180 | 9.0 | 15.0 | 0.00 | 0.00 | 0.00 | 98 | 1010.4 |
| 20260506084116 | 71 | 180 | 5.0 | 8.0 | 0.00 | 0.00 | 0.00 | 98 | 1010.4 |
| 20260506083015 | 71 | 180 | 7.0 | 12.0 | 0.00 | 0.00 | 0.00 | 98 | 1010.3 |
| 20260506082015 | 71 | 180 | 7.0 | 13.0 | 0.00 | 0.00 | 0.00 | 97 | 1010.3 |
| 20260506081016 | 71 | 157 | 7.0 | 14.0 | 0.00 | 0.00 | 0.00 | 97 | 1010.3 |
| 20260506073015 | 72 | 180 | 9.0 | 16.0 | 0.00 | 0.00 | 0.00 | 97 | 1010.4 |
| 20260506072016 | 72 | 180 | 8.0 | 16.0 | 0.00 | 0.00 | 0.00 | 97 | 1010.3 |
| 20260506071015 | 72 | 180 | 9.0 | 15.0 | 0.00 | 0.00 | 0.00 | 97 | 1010.3 |
| 20260506062015 | 72 | 180 | 7.0 | 12.0 | 0.00 | 0.00 | 0.00 | 96 | 1010.5 |
| 20260506061116 | 72 | 157 | 6.0 | 12.0 | 0.00 | 0.00 | 0.00 | 96 | 1010.6 |
| 20260506060116 | 71 | 157 | 7.0 | 12.0 | 0.00 | 0.00 | 0.00 | 96 | 1010.5 |
| 20260506051016 | 71 | 157 | 4.0 | 7.0 | 0.00 | 0.00 | 0.00 | 92 | 1010.2 |
| 20260506045015 | 72 | 157 | 3.0 | 6.0 | 0.00 | 0.00 | 0.00 | 92 | 1010.2 |
| 20260506043115 | 71 | 157 | 3.0 | 6.0 | 0.00 | 0.00 | 0.00 | 92 | 1010.2 |
| 20260506042015 | 71 | 157 | 2.0 | 4.0 | 0.00 | 0.00 | 0.00 | 91 | |
| 20260506041015 | 72 | 157 | 2.0 | 4.0 | 0.00 | 0.00 | 0.00 | 90 | |
| 20260506040015 | 72 | 157 | 1.0 | 4.0 | 0.00 | 0.00 | 0.00 | 90 | |
| 20260506034015 | 72 | 157 | 3.0 | 6.0 | 0.00 | 0.00 | 0.00 | 90 | 1009.7 |
| 20260506033015 | 72 | 157 | 3.0 | 5.0 | 0.00 | 0.00 | 0.00 | 90 | 1009.5 |
| 20260506032015 | 73 | 157 | 2.0 | 4.0 | 0.00 | 0.00 | 0.00 | 88 | 1009.5 |
| 20260506031015 | 73 | 180 | 3.0 | 5.0 | 0.00 | 0.00 | 0.00 | 89 | 1009.5 |
| 20260506030015 | 73 | 157 | 3.0 | 6.0 | 0.00 | 0.00 | 0.00 | 88 | 1009.1 |
| 20260506025015 | 73 | 157 | 3.0 | 6.0 | 0.00 | 0.00 | 0.00 | 87 | 1009.2 |
| 20260506024015 | 73 | 157 | 3.0 | 5.0 | 0.00 | 0.00 | 0.00 | 86 | 1008.9 |
| 20260506022015 | 74 | 157 | 3.0 | 5.0 | 0.00 | 0.00 | 0.00 | 85 | 1008.6 |
| 20260506021015 | 74 | 157 | 2.0 | 4.0 | 0.00 | 0.00 | 0.00 | 85 | 1008.5 |
| 20260506020015 | 75 | 157 | 2.0 | 4.0 | 0.00 | 0.00 | 0.00 | 83 | 1008.5 |
| 20260506015015 | 75 | 157 | 3.0 | 4.0 | 0.00 | 0.00 | 0.00 | 82 | 1008.3 |
| 20260506014016 | 76 | 180 | 3.0 | 6.0 | 0.00 | 0.00 | 0.00 | 81 | 1008.1 |
| 20260506013016 | 76 | 157 | 3.0 | 5.0 | 0.00 | 0.00 | 0.00 | 80 | 1007.9 |
| 20260506012116 | 77 | 180 | 4.0 | 6.0 | 0.00 | 0.00 | 0.00 | 79 | 1007.8 |
| 20260506011015 | 77 | 180 | 4.0 | 6.0 | 0.00 | 0.00 | 0.00 | 79 | 1007.8 |